DateTimeUTC,F1_A11,F1_S11,BsB_S11,BsG_S11,BsR_S11,BbsB_S11,BbsG_S11,BbsR_S11,BaB_A11,BaG_A11,BaR_A11,Tu_S11,T_S11,Uu_S11,U_S11,P_S11,T1_A11
2021-01-08T13:00:00Z,00000200,21000000,,,,,,,-000.06,-000.20,-000.18,14.8,22.0,,00.0,0638.2,30.7
2021-01-08T13:01:00Z,00000200,21000000,,,,,,,-000.28,-000.14,-000.29,14.7,22.0,,00.0,0638.2,30.7
2021-01-08T13:02:00Z,00000200,21000000,,,,,,,-000.05,0000.02,0000.08,14.7,22.0,,00.0,0638.2,30.7
2021-01-08T13:03:00Z,00000200,61000000,,,,,,,-000.17,-000.27,0000.24,14.7,22.0,,00.0,0638.2,30.7
2021-01-08T13:04:00Z,00000200,41000000,0000.01,0000.10,0000.01,-000.20,0000.18,0000.16,0000.26,0000.37,-000.30,14.8,21.8,,00.0,0639.1,30.7
2021-01-08T13:05:00Z,00000200,01000000,0000.03,0000.14,0000.34,-000.17,0000.15,0000.05,0000.20,-000.07,0000.28,14.9,21.7,,00.0,0639.1,30.7
2021-01-08T13:06:00Z,00000200,01000000,0000.47,0000.04,0000.02,-000.47,0000.39,0000.10,-000.22,-000.07,-000.27,15.0,21.7,,00.0,0639.1,30.7
2021-01-08T13:07:00Z,00000200,01000000,0000.60,0000.09,-000.01,-000.03,0000.32,0000.09,0000.33,0000.42,0000.54,15.0,21.7,,00.0,0639.1,30.7
2021-01-08T13:08:00Z,00000200,01000000,0000.58,0000.45,0000.14,0000.34,0000.23,0000.00,0000.00,-000.20,0000.05,15.0,21.7,,00.0,0639.1,30.7
2021-01-08T13:09:00Z,00000200,01000000,0000.99,0000.38,-000.02,-000.24,0000.35,-000.06,0000.00,0000.11,0000.10,15.1,21.7,,00.0,0639.2,30.7
2021-01-08T13:10:00Z,00000200,01000000,0000.40,0000.22,-000.16,-000.32,0000.02,0000.03,-000.04,0000.19,-000.14,15.1,21.7,,00.0,0639.2,30.7
2021-01-08T13:11:00Z,00000200,01000000,0000.71,0000.02,0000.08,-000.20,-000.29,0000.08,0000.28,-000.28,-000.14,15.1,21.7,,00.0,0639.2,30.7
2021-01-08T13:12:00Z,00000200,01000000,0000.46,0000.29,0000.13,-000.22,0000.25,-000.14,0000.01,0000.04,0000.07,15.2,21.8,,00.0,0639.2,30.7
2021-01-08T13:13:00Z,00000200,01000000,0000.08,0000.15,-000.09,-000.16,0000.09,0000.12,0000.37,0000.30,0000.61,15.2,21.8,,00.0,0639.2,30.7
2021-01-08T13:14:00Z,00000200,01000000,0000.53,0000.27,-000.04,-000.10,0000.42,0000.02,-000.28,0000.23,-000.45,15.2,21.8,,00.0,0639.2,30.7
2021-01-08T13:15:00Z,00000200,01000000,-000.11,-000.06,0000.13,0000.95,0000.32,0000.13,0000.04,-000.21,0000.05,15.2,21.8,,00.0,0639.2,30.7
2021-01-08T13:16:00Z,00000200,01000000,0000.26,0000.23,-000.02,0000.10,0000.07,-000.04,-000.22,0000.09,-000.20,15.1,21.8,,00.0,0639.2,30.7
2021-01-08T13:17:00Z,00000200,01000000,0000.02,0000.37,-000.16,0000.28,0000.10,0000.01,0000.13,-000.22,-000.06,15.1,21.7,,00.0,0639.2,30.7
2021-01-08T13:18:00Z,00000200,01000000,0000.52,0000.40,-000.01,0000.23,0000.32,-000.03,0000.12,0000.14,0000.27,15.0,21.7,,00.0,0639.3,30.7
2021-01-08T13:19:00Z,00000200,01000000,0001.13,0000.29,-000.04,0000.12,0000.18,0000.08,0000.19,0000.18,0000.14,15.0,21.7,,00.0,0639.3,30.7
2021-01-08T13:20:00Z,00000200,01000000,0000.18,0000.00,0000.19,0000.33,-000.03,-000.14,0000.14,-000.10,-000.05,15.1,21.7,,00.0,0639.3,30.7
2021-01-08T13:21:00Z,00000200,01000000,0001.07,0000.10,-000.05,0000.18,0000.07,0000.00,-000.28,0000.24,-000.23,15.1,21.7,,00.0,0639.3,30.7
2021-01-08T13:22:00Z,00000200,01000000,0000.37,-000.00,0000.20,0000.57,0000.05,0000.11,0000.40,-000.11,0000.32,15.1,21.7,,00.0,0639.3,30.7
2021-01-08T13:23:00Z,00000200,01000000,0000.11,0000.28,0000.17,0000.05,0000.27,0000.13,0000.10,0000.17,0000.14,15.1,21.7,,00.0,0639.3,30.7
2021-01-08T13:24:00Z,00000200,01000000,0000.42,0000.31,0000.41,0000.60,0000.06,0000.14,-000.24,-000.02,0000.08,15.2,21.7,,00.0,0639.4,30.7
2021-01-08T13:25:00Z,00000200,01000000,0000.32,0000.04,0000.04,0000.16,0000.25,0000.06,0000.45,0000.30,0000.03,15.2,21.8,,00.0,0639.4,30.7
2021-01-08T13:26:00Z,00000200,01000000,0000.39,0000.35,0000.26,0000.60,0000.30,0000.02,-000.19,-000.18,-000.03,15.2,21.8,,00.0,0639.4,30.7
2021-01-08T13:27:00Z,00000200,01000000,0000.33,0000.27,-000.09,0000.30,0000.16,0000.03,0000.00,0000.21,-000.05,15.3,21.8,,00.0,0639.4,30.7
2021-01-08T13:28:00Z,00000200,01000000,-000.35,0000.10,0000.16,-000.18,0000.23,0000.01,-000.20,-000.25,0000.29,15.3,21.8,,00.0,0639.4,30.7
2021-01-08T13:29:00Z,00000200,01000000,0000.46,0000.48,0000.40,-000.10,0000.14,-000.15,0000.19,0000.16,-000.35,15.2,21.8,,00.0,0639.4,30.7
2021-01-08T13:30:00Z,00000200,01000000,0000.62,0000.47,-000.07,-000.02,0000.08,-000.03,0000.32,0000.07,0000.08,15.1,21.7,,00.0,0639.4,30.7
2021-01-08T13:31:00Z,00000200,01000000,0000.26,0000.28,0000.10,0000.44,0000.22,0000.09,-000.24,0000.16,0000.27,15.0,21.7,,00.0,0639.4,30.7
2021-01-08T13:32:00Z,00000200,01000000,0000.58,0000.04,0000.12,0000.19,0000.20,-000.13,0000.05,-000.25,-000.27,14.9,21.6,,00.0,0639.4,30.6
2021-01-08T13:33:00Z,00000200,01000000,0000.27,0000.43,-000.34,0000.15,0000.24,0000.05,0000.04,0000.15,0000.04,14.9,21.6,,00.0,0639.4,30.6
2021-01-08T13:34:00Z,00000200,01000000,0000.06,0000.24,0000.23,0000.20,0000.08,-000.06,-000.05,0000.01,0000.22,14.9,21.6,,00.0,0639.4,30.7
2021-01-08T13:35:00Z,00000200,01000000,0001.02,0000.20,0000.16,0000.58,0000.29,-000.10,0000.44,-000.14,-000.17,14.9,21.6,,00.0,0639.4,30.7
2021-01-08T13:36:00Z,00000200,01000000,0000.45,0000.41,0000.15,0000.02,0000.31,0000.10,-000.03,0000.58,0000.24,14.9,21.6,,00.0,0639.4,30.7
2021-01-08T13:37:00Z,00000200,01000000,0000.65,0000.38,0000.05,0000.33,0000.24,0000.26,0000.15,-000.15,0000.12,15.0,21.6,,00.0,0639.4,30.7
2021-01-08T13:38:00Z,00000200,01000000,-000.22,-000.03,0000.41,0000.77,0000.30,0000.04,-000.18,0000.14,0000.01,15.0,21.6,,00.0,0639.4,30.7
2021-01-08T13:39:00Z,00000200,01000000,0001.15,0000.23,0000.23,0000.57,0000.08,0000.21,0000.20,0000.03,0000.14,15.0,21.6,,00.0,0639.4,30.7
2021-01-08T13:40:00Z,00000200,01000000,0000.18,0000.18,-000.09,0000.22,-000.04,0000.12,-000.00,0000.17,-000.11,15.1,21.7,,00.0,0639.3,30.7
2021-01-08T13:41:00Z,00000200,01000000,0001.14,0000.44,-000.12,0000.35,0000.23,-000.15,-000.03,-000.07,-000.06,15.1,21.7,,00.0,0639.3,30.7
2021-01-08T13:42:00Z,00000200,01000000,0000.54,-000.14,0000.26,-000.34,0000.29,0000.04,-000.05,-000.37,-000.04,15.1,21.7,,00.0,0639.2,30.7
2021-01-08T13:43:00Z,00000200,01000000,0000.38,-000.01,-000.04,0000.59,0000.20,0000.06,0000.59,0000.62,0000.33,15.0,21.6,,00.0,0639.2,30.6
2021-01-08T13:44:00Z,00000200,01000000,0001.10,-000.05,0000.04,0000.43,0000.16,0000.00,0000.73,0000.91,0000.41,14.9,21.6,,00.0,0639.2,30.6
2021-01-08T13:45:00Z,00000200,01000000,0000.69,0000.08,0000.15,0000.08,0000.11,0000.08,0000.46,-000.12,0000.46,14.8,21.5,,00.0,0639.2,30.6
2021-01-08T13:46:00Z,00000200,01000000,0000.52,0000.02,-000.18,0000.02,-000.09,0000.02,0000.03,0000.39,0000.13,14.7,21.4,,00.0,0639.2,30.5
2021-01-08T13:47:00Z,00000200,01000000,-000.12,0000.40,0000.12,-000.13,-000.11,-000.19,0000.22,0000.23,0000.06,14.6,21.4,,00.0,0639.1,30.5
2021-01-08T13:48:00Z,00000200,01000000,0000.09,0000.18,0000.01,0000.25,-000.01,0000.02,0000.65,0000.46,0000.08,14.5,21.3,,00.0,0639.2,30.5
2021-01-08T13:49:00Z,00000200,01000000,0000.99,0000.20,-000.03,-000.24,0000.01,-000.02,-000.23,-000.01,0000.10,14.5,21.3,,00.0,0639.1,30.6
2021-01-08T13:50:00Z,00000200,01000000,-000.06,0000.23,0000.01,0000.11,0000.12,-000.08,0000.21,0000.34,0000.15,14.4,21.3,,00.0,0639.1,30.6
2021-01-08T13:51:00Z,00000200,01000000,0000.51,0000.27,0000.02,0000.26,0000.05,0000.11,0000.00,-000.04,0000.15,14.4,21.3,,00.0,0639.1,30.6
2021-01-08T13:52:00Z,00000200,01000000,0001.03,0000.29,0000.13,0000.38,0000.12,-000.07,0000.37,0000.18,0000.21,14.4,21.3,,00.0,0639.1,30.6
2021-01-08T13:53:00Z,00000200,01000000,-000.33,0000.42,0000.06,-000.00,0000.26,-000.08,0000.19,0000.01,-000.11,14.5,21.3,,00.0,0639.0,30.6
2021-01-08T13:54:00Z,00000200,01000000,0000.29,0000.25,0000.14,0000.30,-000.05,0000.07,0000.20,0000.11,-000.07,14.5,21.3,,00.0,0639.0,30.6
2021-01-08T13:55:00Z,00000200,01000000,0000.11,0000.54,0000.18,0000.22,0000.08,0000.13,-000.38,0000.24,0000.09,14.5,21.3,,00.0,0639.0,30.6
2021-01-08T13:56:00Z,00000200,01000000,0000.44,-000.16,0000.24,0000.32,0000.15,0000.04,0000.41,0000.07,0000.37,14.5,21.3,,00.0,0639.0,30.6
2021-01-08T13:57:00Z,00000200,41000000,,,,,,,-000.40,-000.50,-000.28,14.6,21.3,,00.0,0639.1,30.7
2021-01-08T13:58:00Z,00000200,61000000,,,,,,,0000.08,0000.38,0000.18,14.1,21.5,,00.0,0638.1,30.7
2021-01-08T13:59:00Z,00000200,21000000,,,,,,,0000.39,0000.42,-000.24,14.1,21.6,,00.0,0638.1,30.7
